[[{"header":{"parameterUnit":"m.s-1","parameterCategory":1,"la1":30.2991,"la2":30.254,"lo1":-89.0895,"lo2":-89.0444,"dy":0.0017,"dx":0.0017,"nx":28,"ny":28,"refTime":"2025-07-21T21:00:00:Z","depth":0,"parameterNumber":2,"parameterNumberName":"U-component_of_WINDS"},"data":[0,0,0,0,0,0,0,0,0,0,0,0,0,0,0,0,0,0,0,0,0,0,0,0,0,0,0,0,0,0,0,0,0,0,0,0,0,0,0,0,0,0,0,0,0,0,0,0,0,0,0,0,0,0,0,0,0,0,3.9365,3.9366,0,3.9463,3.9465,3.9466,3.941,3.9408,3.9405,3.9402,3.9506,3.9511,3.9516,0,0,0,0,0,0,0,0,0,0,0,0,0,3.9133,3.9137,3.9365,3.9366,3.9367,3.9463,3.9465,3.9466,3.9411,3.9407,3.9404,3.9401,3.9504,3.951,3.9516,0,0,0,0,0,0,0,0,0,0,0,0,0,3.9233,3.9139,3.9365,3.9351,3.9351,3.9463,3.9465,3.9466,3.9412,3.9407,3.9403,3.9399,3.9502,3.9509,3.9517,3.9648,0,0,3.9542,3.9545,0,0,0,0,0,0,0,0,3.9227,3.9241,3.9352,3.9353,3.9352,3.942,3.942,3.9527,3.9413,3.9389,3.9402,3.9397,3.9481,3.949,3.9518,3.9653,3.9658,3.9542,3.9547,3.955,3.9553,0,0,0,0,0,0,0,3.922,3.9237,3.9404,3.9354,3.9354,3.9342,3.9351,3.944,3.9457,3.939,3.9387,3.9399,3.948,3.951,3.952,3.9659,3.9542,3.9549,3.9554,3.9557,3.991,3.9915,0,0,0,0,0,0,3.9214,3.9231,3.9401,3.9407,3.9278,3.9349,3.936,3.9403,3.9455,3.9459,3.9402,3.9396,3.9499,3.951,3.9523,3.9682,3.955,3.9558,3.9562,3.9906,3.9911,3.9916,0,0,0,0,0,0,3.9209,3.9229,3.9397,3.9318,3.9338,3.9357,3.9406,3.9407,3.9437,3.9464,3.9467,3.943,3.9496,3.9512,3.9618,3.9685,3.9561,3.9569,3.99,3.9907,3.9914,4.0,0,0,0,0,0,0,3.9203,3.9228,3.9277,3.932,3.9343,3.949,3.941,3.9412,3.945,3.9443,3.9491,3.9495,3.9494,3.9607,3.9626,3.9693,3.9575,3.9894,3.9903,3.9911,3.9991,4.0009,4.0024,0,0,0,0,0,3.9194,3.9298,3.928,3.9301,3.9405,3.9493,3.9507,3.9502,3.9456,3.9506,3.9524,3.9494,3.9674,3.9618,3.9639,3.971,3.989,3.9901,3.9911,3.9984,4.0005,4.0024,0,0,0,0,0,0,3.9263,3.9303,3.9284,3.9403,3.9445,3.9484,3.9547,3.9525,3.9582,3.9573,3.9565,3.9577,3.9688,3.9709,3.9646,3.9841,3.9775,3.979,3.9823,3.9844,3.986,3.9853,3.9581,0,0,0,0,0,3.9292,3.936,3.9391,3.9494,3.9516,3.9528,3.9566,3.956,3.9603,3.9621,3.9646,3.9691,3.9757,3.9802,3.9864,3.9994,4.0005,4.0053,4.007,4.0083,4.0097,4.0169,4.0191,3.995,3.995,3.995,0,0,3.9352,3.9383,3.9426,3.9508,3.954,3.9612,3.9543,3.9622,3.9675,3.9633,3.9735,3.9756,3.9805,3.9924,3.9977,3.9945,4.0166,4.0096,4.0107,4.0113,4.0182,4.0205,4.0225,3.9957,3.9956,3.9955,0,0,3.95,3.9529,3.9618,3.9652,3.9701,3.9708,3.973,3.9772,3.9784,3.9886,3.9857,3.9921,4.0035,4.0072,4.0106,4.0269,4.0244,4.029,4.0376,4.0447,4.0466,4.0483,4.0543,4.0564,4.0303,4.0303,4.0304,0,3.957,3.9675,3.9667,3.9749,3.9787,3.9751,3.9843,3.9876,3.9943,3.9971,3.9934,4.0078,4.0108,4.0237,4.0277,4.0304,4.033,4.0285,4.0463,4.048,4.0496,4.0553,4.0576,4.0309,4.0308,4.0308,4.0307,0,3.976,3.9834,3.99,3.9966,4.0012,4.0098,4.0104,4.0151,4.0141,4.0153,4.0259,4.0294,4.0365,4.0394,4.0384,4.0522,4.0501,4.0464,4.0397,4.0525,4.0579,4.06,4.0317,4.0315,4.0313,4.0312,0,0,3.9953,4.0014,4.0039,4.0069,4.0121,4.0179,4.0264,4.0332,4.0374,4.0422,4.0494,4.0593,4.056,4.0598,4.0592,4.0654,4.0784,4.061,4.0611,4.0643,4.094,4.0969,4.0994,4.0767,4.0771,4.0774,4.0936,0,4.0105,4.0254,4.025,4.0388,4.0458,4.0426,4.05,4.0541,4.0555,4.0617,4.0633,4.0704,4.0653,4.0676,4.0736,4.0755,4.0844,4.0743,4.0836,4.084,4.0827,4.1022,4.1052,4.1204,4.0957,4.0961,4.0963,0,4.0303,4.0358,4.0503,4.0546,4.0575,4.0642,4.0706,4.0765,4.0811,4.0817,4.0861,4.0846,4.0934,4.0865,4.0987,4.0919,4.0957,4.0973,4.0979,4.0988,4.091,4.1039,4.1251,4.1275,4.0996,4.0994,4.0991,0,4.0432,4.0542,4.0644,4.067,4.0723,4.0771,4.0795,4.0837,4.0879,4.0935,4.0962,4.1028,4.1064,4.1116,4.112,4.1068,4.1245,4.1174,4.1254,4.1254,4.1293,4.1291,4.1517,4.1315,4.1315,4.1314,4.1314,0,4.0604,4.0695,4.0703,4.0765,4.0867,4.0862,4.0963,4.0983,4.1021,4.1088,4.1064,4.1128,4.1128,4.1194,4.1198,4.13,4.1316,4.1325,4.1325,4.1328,4.1328,4.1354,4.1344,4.132,4.1319,4.1318,4.1317,0,4.0766,4.0774,4.0883,4.0924,4.0937,4.101,4.1046,4.1106,4.1118,4.1204,4.1224,4.1243,4.1319,4.1328,4.1416,4.1419,4.1543,4.1531,4.1528,4.1527,4.1606,4.1599,4.1858,4.1893,4.1667,4.1669,4.167,0,4.0875,4.0945,4.0993,4.1036,4.1063,4.1132,4.1175,4.1173,4.1219,4.1278,4.1332,4.1406,4.1465,4.1589,4.1612,4.168,4.1671,4.1757,4.1681,4.1683,4.1675,4.1671,4.1679,4.1772,4.1775,4.1777,4.1778,0,4.107,4.1071,4.1133,4.1198,4.1249,4.13,4.1348,4.1385,4.1389,4.1442,4.1519,4.1565,4.1656,4.1731,4.1799,4.1825,4.1804,4.1802,4.1824,4.1829,4.1825,4.183,4.157,4.1796,4.1794,4.1793,4.1792,4.1791,4.1211,4.1271,4.1315,4.1386,4.1421,4.1467,4.1526,4.1546,4.161,4.1684,4.1679,4.1765,4.1811,4.19,4.1931,4.2,4.1971,4.2003,4.2012,4.202,4.2029,4.1812,4.2012,4.2011,4.2011,4.201,4.201,0,4.1406,4.1432,4.1497,4.1565,4.1621,4.1594,4.1646,4.1695,4.1771,4.1816,4.1874,4.1965,4.2037,4.2066,4.2137,4.2186,4.2179,4.2205,4.2203,4.221,4.2049,4.2024,4.2211,4.2211,4.2211,4.2211,4.2211,4.2211,4.1514,4.1616,4.1623,4.1743,4.1769,4.1853,4.1885,4.1928,4.1963,4.2065,4.2125,4.2142,4.2181,4.2255,4.2321,4.2328,4.2356,4.2388,4.2391,4.2241,4.2221,4.2201,4.2177,4.2394,4.2394,4.2546,4.2547,4.2548]},{"header":{"parameterUnit":"m.s-1","parameterCategory":1,"la1":30.2991,"la2":30.254,"lo1":-89.0895,"lo2":-89.0444,"dy":0.0017,"dx":0.0017,"nx":28,"ny":28,"refTime":"2025-07-21T21:00:00:Z","depth":0,"parameterNumber":3,"parameterNumberName":"V-component_of_WINDS"},"data":[0,0,0,0,0,0,0,0,0,0,0,0,0,0,0,0,0,0,0,0,0,0,0,0,0,0,0,0,0,0,0,0,0,0,0,0,0,0,0,0,0,0,0,0,0,0,0,0,0,0,0,0,0,0,0,0,0,0,-2.3286,-2.3287,0,-2.3369,-2.337,-2.3371,-2.3374,-2.3373,-2.3372,-2.3371,-2.3454,-2.3457,-2.346,0,0,0,0,0,0,0,0,0,0,0,0,0,-2.313,-2.3133,-2.3286,-2.3287,-2.3288,-2.3369,-2.337,-2.3371,-2.3374,-2.3372,-2.3371,-2.337,-2.3453,-2.3456,-2.346,0,0,0,0,0,0,0,0,0,0,0,0,0,-2.3204,-2.3134,-2.3286,-2.3299,-2.3301,-2.3368,-2.337,-2.3371,-2.3374,-2.3372,-2.3371,-2.337,-2.3451,-2.3456,-2.3461,-2.3519,0,0,-2.3475,-2.3477,0,0,0,0,0,0,0,0,-2.32,-2.321,-2.3296,-2.3299,-2.3301,-2.3359,-2.3345,-2.3421,-2.3374,-2.3346,-2.3371,-2.3369,-2.3423,-2.343,-2.3449,-2.3523,-2.3527,-2.3476,-2.3478,-2.348,-2.3482,0,0,0,0,0,0,0,-2.3195,-2.3206,-2.3319,-2.3298,-2.33,-2.3301,-2.331,-2.336,-2.3392,-2.3349,-2.3349,-2.3359,-2.3424,-2.3445,-2.3451,-2.3528,-2.3475,-2.348,-2.3482,-2.3484,-2.3655,-2.3657,0,0,0,0,0,0,-2.3187,-2.3202,-2.3316,-2.3321,-2.3246,-2.3305,-2.3315,-2.3342,-2.3392,-2.3398,-2.336,-2.3359,-2.3437,-2.3446,-2.3454,-2.3526,-2.348,-2.3485,-2.3487,-2.3654,-2.3656,-2.3658,0,0,0,0,0,0,-2.3184,-2.3197,-2.3313,-2.3262,-2.3277,-2.3309,-2.334,-2.3345,-2.3365,-2.34,-2.3406,-2.3375,-2.3436,-2.3447,-2.3503,-2.3529,-2.3487,-2.3491,-2.3652,-2.3654,-2.3657,-2.3671,0,0,0,0,0,0,-2.3179,-2.3196,-2.3219,-2.3262,-2.3279,-2.3361,-2.3341,-2.3347,-2.3373,-2.3372,-2.3416,-2.3421,-2.3436,-2.3496,-2.3508,-2.3535,-2.3495,-2.3649,-2.3653,-2.3656,-2.3669,-2.3674,-2.3679,0,0,0,0,0,-2.3174,-2.3219,-2.322,-2.3234,-2.3308,-2.3363,-2.3372,-2.3389,-2.3375,-2.3398,-2.3421,-2.342,-2.3525,-2.3502,-2.3515,-2.3544,-2.3648,-2.3652,-2.3656,-2.3666,-2.3673,-2.3679,0,0,0,0,0,0,-2.3177,-2.3225,-2.3226,-2.3287,-2.3321,-2.3363,-2.3393,-2.3395,-2.3433,-2.343,-2.3449,-2.3459,-2.3514,-2.3535,-2.3509,-2.3604,-2.3585,-2.3591,-2.3588,-2.3595,-2.36,-2.3593,-2.3499,0,0,0,0,0,-2.3185,-2.3226,-2.3265,-2.3315,-2.3332,-2.336,-2.3384,-2.3394,-2.3429,-2.3443,-2.347,-2.3504,-2.3545,-2.3571,-2.361,-2.3672,-2.3681,-2.3698,-2.3703,-2.3707,-2.3712,-2.3747,-2.3755,-2.367,-2.367,-2.367,0,0,-2.3202,-2.3233,-2.3257,-2.3317,-2.3344,-2.3385,-2.3371,-2.3415,-2.3446,-2.3449,-2.3504,-2.3525,-2.3564,-2.3624,-2.3651,-2.3642,-2.3738,-2.3712,-2.3715,-2.3718,-2.3752,-2.376,-2.3767,-2.3673,-2.3672,-2.3672,0,0,-2.3254,-2.3281,-2.3326,-2.3354,-2.3395,-2.3414,-2.3424,-2.3466,-2.3481,-2.3536,-2.354,-2.3576,-2.3646,-2.3674,-2.3697,-2.376,-2.376,-2.3772,-2.3798,-2.3832,-2.3838,-2.3844,-2.3867,-2.3875,-2.3778,-2.3778,-2.3778,0,-2.3269,-2.3331,-2.3349,-2.3393,-2.3419,-2.3425,-2.3471,-2.3496,-2.3549,-2.3566,-2.3556,-2.3644,-2.3671,-2.3737,-2.3752,-2.3771,-2.3784,-2.3767,-2.3836,-2.3842,-2.3848,-2.387,-2.3878,-2.3779,-2.3779,-2.3779,-2.3779,0,-2.3348,-2.3392,-2.3423,-2.3474,-2.3503,-2.3548,-2.3572,-2.36,-2.3607,-2.3627,-2.3683,-2.3716,-2.3762,-2.3778,-2.3786,-2.3846,-2.3839,-2.3832,-2.3813,-2.3857,-2.3878,-2.3886,-2.3781,-2.378,-2.378,-2.378,0,0,-2.3404,-2.3464,-2.3475,-2.3499,-2.3546,-2.3579,-2.3624,-2.367,-2.3694,-2.373,-2.3768,-2.3827,-2.3821,-2.3848,-2.3859,-2.3888,-2.3936,-2.3878,-2.3879,-2.3887,-2.4004,-2.4009,-2.4018,-2.3937,-2.3938,-2.394,-2.4001,0,-2.346,-2.3541,-2.3558,-2.3628,-2.3668,-2.3675,-2.3714,-2.3747,-2.3766,-2.3803,-2.3824,-2.3866,-2.3855,-2.3871,-2.3901,-2.3924,-2.396,-2.392,-2.3972,-2.3974,-2.3962,-2.4029,-2.4034,-2.409,-2.4009,-2.401,-2.4011,0,-2.3537,-2.3575,-2.3649,-2.3691,-2.3709,-2.3744,-2.3787,-2.3822,-2.386,-2.3872,-2.3902,-2.391,-2.3957,-2.3936,-2.4001,-2.3974,-2.3996,-2.4011,-2.4014,-2.4019,-2.3995,-2.4036,-2.4108,-2.4117,-2.4024,-2.4023,-2.4022,0,-2.357,-2.364,-2.3694,-2.3713,-2.3763,-2.3788,-2.381,-2.3846,-2.3873,-2.3911,-2.3928,-2.3971,-2.3995,-2.4027,-2.4047,-2.403,-2.4111,-2.4091,-2.4122,-2.4121,-2.4138,-2.4137,-2.4215,-2.4153,-2.4153,-2.4153,-2.4152,0,-2.3631,-2.3676,-2.3709,-2.3742,-2.3792,-2.3812,-2.3861,-2.3883,-2.3915,-2.3952,-2.396,-2.3995,-2.4018,-2.4056,-2.4072,-2.4123,-2.4134,-2.4145,-2.4148,-2.4144,-2.4143,-2.4159,-2.4155,-2.4155,-2.4154,-2.4154,-2.4153,0,-2.3677,-2.3701,-2.3759,-2.3802,-2.3814,-2.3849,-2.3886,-2.3918,-2.3938,-2.3985,-2.3997,-2.4028,-2.4073,-2.4095,-2.4151,-2.4162,-2.422,-2.4221,-2.4207,-2.4209,-2.4238,-2.4235,-2.4329,-2.4343,-2.4272,-2.4272,-2.4273,0,-2.3714,-2.3749,-2.3796,-2.3821,-2.3844,-2.3885,-2.3913,-2.3933,-2.3962,-2.4007,-2.4034,-2.4079,-2.4117,-2.4189,-2.4216,-2.4259,-2.4261,-2.4291,-2.4267,-2.4262,-2.4262,-2.4259,-2.4263,-2.4295,-2.4296,-2.4296,-2.4297,0,-2.3778,-2.3788,-2.3828,-2.3872,-2.3904,-2.394,-2.3974,-2.3995,-2.4021,-2.4052,-2.4099,-2.4128,-2.4186,-2.4231,-2.4276,-2.4298,-2.4302,-2.4304,-2.4314,-2.4309,-2.43,-2.4306,-2.4219,-2.4302,-2.4301,-2.4301,-2.4301,-2.4301,-2.3821,-2.3852,-2.389,-2.3934,-2.3962,-2.3995,-2.4027,-2.4052,-2.4091,-2.414,-2.4149,-2.4199,-2.4236,-2.4297,-2.4321,-2.436,-2.4353,-2.4366,-2.437,-2.4373,-2.4374,-2.4294,-2.4368,-2.4368,-2.4368,-2.4367,-2.4367,0,-2.3885,-2.391,-2.395,-2.3999,-2.4034,-2.4035,-2.4074,-2.4102,-2.4146,-2.418,-2.4217,-2.4271,-2.4315,-2.4346,-2.4391,-2.4416,-2.4419,-2.4427,-2.4425,-2.443,-2.4378,-2.4365,-2.4424,-2.4424,-2.4424,-2.4424,-2.4424,-2.4424,-2.3923,-2.3976,-2.3991,-2.4058,-2.4083,-2.4132,-2.4154,-2.4184,-2.4212,-2.4271,-2.4308,-2.4328,-2.4362,-2.4409,-2.445,-2.4458,-2.4474,-2.4482,-2.449,-2.444,-2.4434,-2.4428,-2.4417,-2.4485,-2.4486,-2.454,-2.454,-2.4541]}]]